Time,TemperatureF,DewpointF,PressureIn,WindDirection,WindDirectionDegrees,WindSpeedMPH,WindSpeedGustMPH,Humidity,HourlyPrecipIn,Conditions,Clouds,dailyrainin,SoftwareType,DateUTC
2013-11-10 00:04:00,48.3,34.0,29.89,WNW,287,8.0,-999.0,59,-99.99,,,0.00,weatherlink.com 1.10,2013-11-10 05:04:00,
2013-11-10 00:19:00,-999.0,-99.9,29.89,North,-999,-999.0,-999.0,-999,-99.99,,,0.00,weatherlink.com 1.10,2013-11-10 05:19:00,
2013-11-10 00:34:00,-999.0,-99.9,29.88,North,-999,-999.0,-999.0,-999,-99.99,,,0.00,weatherlink.com 1.10,2013-11-10 05:34:00,
2013-11-10 00:50:00,49.1,35.0,29.86,WNW,287,12.0,-999.0,59,-99.99,,,0.00,weatherlink.com 1.10,2013-11-10 05:50:00,
2013-11-10 01:05:00,48.6,35.0,29.86,SW,227,1.0,-999.0,59,-99.99,,,0.00,weatherlink.com 1.10,2013-11-10 06:05:00,
2013-11-10 01:20:00,48.0,35.0,29.86,West,264,3.0,-999.0,61,-99.99,,,0.00,weatherlink.com 1.10,2013-11-10 06:20:00,
2013-11-10 01:35:00,47.9,35.0,29.85,WSW,244,6.0,-999.0,61,-99.99,,,0.00,weatherlink.com 1.10,2013-11-10 06:35:00,
2013-11-10 01:50:00,47.9,35.0,29.85,SW,230,3.0,-999.0,61,-99.99,,,0.00,weatherlink.com 1.10,2013-11-10 06:50:00,
2013-11-10 02:05:00,47.7,36.0,29.84,SW,230,2.0,-999.0,63,-99.99,,,0.00,weatherlink.com 1.10,2013-11-10 07:05:00,
2013-11-10 02:20:00,47.7,35.0,29.83,WSW,251,8.0,-999.0,62,-99.99,,,0.00,weatherlink.com 1.10,2013-11-10 07:20:00,
2013-11-10 02:35:00,47.7,36.0,29.83,WSW,248,3.0,-999.0,63,-99.99,,,0.00,weatherlink.com 1.10,2013-11-10 07:35:00,
2013-11-10 02:50:00,47.7,36.0,29.82,WNW,282,8.0,-999.0,63,-99.99,,,0.00,weatherlink.com 1.10,2013-11-10 07:50:00,
2013-11-10 03:05:00,47.7,35.0,29.82,WSW,244,5.0,-999.0,61,-99.99,,,0.00,weatherlink.com 1.10,2013-11-10 08:05:00,
2013-11-10 03:20:00,47.7,35.0,29.82,WSW,253,0.0,-999.0,61,-99.99,,,0.00,weatherlink.com 1.10,2013-11-10 08:20:00,
2013-11-10 03:35:00,47.6,35.0,29.82,WSW,258,2.0,-999.0,61,-99.99,,,0.00,weatherlink.com 1.10,2013-11-10 08:35:00,
2013-11-10 03:50:00,47.4,34.0,29.81,WSW,246,2.0,-999.0,61,-99.99,,,0.00,weatherlink.com 1.10,2013-11-10 08:50:00,
2013-11-10 04:05:00,47.3,34.0,29.81,West,264,1.0,-999.0,61,-99.99,,,0.00,weatherlink.com 1.10,2013-11-10 09:05:00,
2013-11-10 04:20:00,47.0,34.0,29.81,WSW,257,2.0,-999.0,62,-99.99,,,0.00,weatherlink.com 1.10,2013-11-10 09:20:00,
2013-11-10 04:35:00,46.4,34.0,29.81,WSW,253,2.0,-999.0,63,-99.99,,,0.00,weatherlink.com 1.10,2013-11-10 09:35:00,
2013-11-10 04:50:00,46.2,35.0,29.80,West,263,2.0,-999.0,64,-99.99,,,0.00,weatherlink.com 1.10,2013-11-10 09:50:00,
2013-11-10 05:05:00,45.8,35.0,29.80,WSW,254,2.0,-999.0,65,-99.99,,,0.00,weatherlink.com 1.10,2013-11-10 10:05:00,
2013-11-10 05:20:00,45.4,35.0,29.80,WSW,253,2.0,-999.0,66,-99.99,,,0.00,weatherlink.com 1.10,2013-11-10 10:20:00,
2013-11-10 05:35:00,45.8,34.0,29.80,SW,223,0.0,-999.0,63,-99.99,,,0.00,weatherlink.com 1.10,2013-11-10 10:35:00,
2013-11-10 05:50:00,45.7,33.0,29.79,WSW,250,2.0,-999.0,62,-99.99,,,0.00,weatherlink.com 1.10,2013-11-10 10:50:00,
2013-11-10 06:05:00,45.2,33.0,29.79,West,278,4.0,-999.0,62,-99.99,,,0.00,weatherlink.com 1.10,2013-11-10 11:05:00,
2013-11-10 06:20:00,44.9,32.0,29.79,West,265,2.0,-999.0,62,-99.99,,,0.00,weatherlink.com 1.10,2013-11-10 11:20:00,
2013-11-10 06:35:00,44.5,32.0,29.79,WSW,256,3.0,-999.0,62,-99.99,,,0.00,weatherlink.com 1.10,2013-11-10 11:35:00,
2013-11-10 06:50:00,44.3,32.0,29.79,WSW,237,2.0,-999.0,63,-99.99,,,0.00,weatherlink.com 1.10,2013-11-10 11:50:00,
2013-11-10 07:05:00,44.3,33.0,29.79,West,261,4.0,-999.0,64,-99.99,,,0.00,weatherlink.com 1.10,2013-11-10 12:05:00,
2013-11-10 07:20:00,44.6,33.0,29.79,WSW,250,0.0,-999.0,63,-99.99,,,0.00,weatherlink.com 1.10,2013-11-10 12:20:00,
2013-11-10 07:35:00,45.1,33.0,29.79,SW,219,0.0,-999.0,62,-99.99,,,0.00,weatherlink.com 1.10,2013-11-10 12:35:00,
2013-11-10 07:50:00,45.8,32.0,29.79,West,270,1.0,-999.0,60,-99.99,,,0.00,weatherlink.com 1.10,2013-11-10 12:50:00,
2013-11-10 08:05:00,-999.0,-99.9,29.79,North,-999,-999.0,-999.0,-999,-99.99,,,0.00,weatherlink.com 1.10,2013-11-10 13:05:00,
2013-11-10 08:20:00,-999.0,-99.9,29.79,WNW,285,8.0,-999.0,-999,-99.99,,,0.00,weatherlink.com 1.10,2013-11-10 13:20:00,
2013-11-10 08:35:00,48.2,32.0,29.80,West,265,6.0,-999.0,53,-99.99,,,0.00,weatherlink.com 1.10,2013-11-10 13:35:00,
2013-11-10 08:50:00,49.1,33.0,29.79,SW,220,6.0,-999.0,54,-99.99,,,0.00,weatherlink.com 1.10,2013-11-10 13:50:00,
2013-11-10 09:05:00,49.8,32.0,29.79,WNW,291,3.0,-999.0,51,-99.99,,,0.00,weatherlink.com 1.10,2013-11-10 14:05:00,
2013-11-10 09:21:00,50.7,33.0,29.77,WNW,282,8.0,-999.0,52,-99.99,,,0.00,weatherlink.com 1.10,2013-11-10 14:21:00,
2013-11-10 09:36:00,51.7,34.0,29.77,WSW,248,3.0,-999.0,51,-99.99,,,0.00,weatherlink.com 1.10,2013-11-10 14:36:00,
2013-11-10 09:51:00,52.9,34.0,29.77,South,191,4.0,-999.0,49,-99.99,,,0.00,weatherlink.com 1.10,2013-11-10 14:51:00,
2013-11-10 10:06:00,54.5,34.0,29.76,West,280,0.0,-999.0,46,-99.99,,,0.00,weatherlink.com 1.10,2013-11-10 15:06:00,
2013-11-10 10:21:00,55.9,32.0,29.75,West,271,7.0,-999.0,41,-99.99,,,0.00,weatherlink.com 1.10,2013-11-10 15:21:00,
2013-11-10 10:36:00,56.7,33.0,29.74,WSW,254,3.0,-999.0,41,-99.99,,,0.00,weatherlink.com 1.10,2013-11-10 15:36:00,
2013-11-10 10:51:00,58.3,31.0,29.74,West,263,5.0,-999.0,36,-99.99,,,0.00,weatherlink.com 1.10,2013-11-10 15:51:00,
2013-11-10 11:06:00,59.9,31.0,29.73,WSW,256,3.0,-999.0,34,-99.99,,,0.00,weatherlink.com 1.10,2013-11-10 16:06:00,
2013-11-10 11:21:00,60.7,31.0,29.72,West,280,2.0,-999.0,33,-99.99,,,0.00,weatherlink.com 1.10,2013-11-10 16:21:00,
2013-11-10 11:36:00,61.5,31.0,29.71,WNW,301,3.0,-999.0,32,-99.99,,,0.00,weatherlink.com 1.10,2013-11-10 16:36:00,
2013-11-10 11:51:00,61.8,30.0,29.72,WNW,287,1.0,-999.0,30,-99.99,,,0.00,weatherlink.com 1.10,2013-11-10 16:51:00,
2013-11-10 12:06:00,61.8,29.0,29.71,ESE,102,0.0,-999.0,29,-99.99,,,0.00,weatherlink.com 1.10,2013-11-10 17:06:00,
2013-11-10 12:21:00,59.2,30.0,29.70,WSW,258,7.0,-999.0,33,-99.99,,,0.00,weatherlink.com 1.10,2013-11-10 17:21:00,
2013-11-10 12:36:00,58.7,31.0,29.70,WNW,292,10.0,-999.0,35,-99.99,,,0.00,weatherlink.com 1.10,2013-11-10 17:36:00,
2013-11-10 12:51:00,60.5,30.0,29.70,NNW,337,7.0,-999.0,32,-99.99,,,0.00,weatherlink.com 1.10,2013-11-10 17:51:00,
2013-11-10 13:06:00,59.5,30.0,29.69,WSW,240,7.0,-999.0,33,-99.99,,,0.00,weatherlink.com 1.10,2013-11-10 18:06:00,
2013-11-10 13:21:00,59.6,27.0,29.70,NW,311,4.0,-999.0,29,-99.99,,,0.00,weatherlink.com 1.10,2013-11-10 18:21:00,
2013-11-10 13:36:00,59.5,27.0,29.70,West,264,1.0,-999.0,29,-99.99,,,0.00,weatherlink.com 1.10,2013-11-10 18:36:00,
2013-11-10 13:51:00,59.0,28.0,29.70,WSW,241,7.0,-999.0,31,-99.99,,,0.00,weatherlink.com 1.10,2013-11-10 18:51:00,
2013-11-10 14:06:00,58.4,28.0,29.70,WNW,289,3.0,-999.0,32,-99.99,,,0.00,weatherlink.com 1.10,2013-11-10 19:06:00,
2013-11-10 14:21:00,57.8,32.0,29.72,NW,312,2.0,-999.0,38,-99.99,,,0.00,weatherlink.com 1.10,2013-11-10 19:21:00,
2013-11-10 14:36:00,53.8,36.0,29.74,NNW,330,6.0,-999.0,52,-99.99,,,0.00,weatherlink.com 1.10,2013-11-10 19:36:00,
2013-11-10 14:51:00,52.3,37.0,29.76,NW,316,2.0,-999.0,56,-99.99,,,0.00,weatherlink.com 1.10,2013-11-10 19:51:00,
2013-11-10 15:06:00,51.7,37.0,29.78,North,0,1.0,-999.0,57,-99.99,,,0.00,weatherlink.com 1.10,2013-11-10 20:06:00,
2013-11-10 15:21:00,50.5,37.0,29.79,NNW,333,2.0,-999.0,60,-99.99,,,0.00,weatherlink.com 1.10,2013-11-10 20:21:00,
2013-11-10 15:36:00,49.8,36.0,29.80,WSW,256,1.0,-999.0,59,-99.99,,,0.00,weatherlink.com 1.10,2013-11-10 20:36:00,
2013-11-10 15:51:00,49.9,34.0,29.80,North,354,1.0,-999.0,54,-99.99,,,0.00,weatherlink.com 1.10,2013-11-10 20:51:00,
2013-11-10 16:06:00,50.2,33.0,29.80,West,264,6.0,-999.0,51,-99.99,,,0.00,weatherlink.com 1.10,2013-11-10 21:06:00,
2013-11-10 16:21:00,50.4,33.0,29.80,SSW,192,2.0,-999.0,51,-99.99,,,0.00,weatherlink.com 1.10,2013-11-10 21:21:00,
2013-11-10 16:36:00,49.8,33.0,29.81,West,263,2.0,-999.0,52,-99.99,,,0.00,weatherlink.com 1.10,2013-11-10 21:36:00,
2013-11-10 16:51:00,49.4,33.0,29.82,WSW,258,3.0,-999.0,53,-99.99,,,0.00,weatherlink.com 1.10,2013-11-10 21:51:00,
2013-11-10 17:06:00,49.2,33.0,29.83,NNW,343,0.0,-999.0,54,-99.99,,,0.00,weatherlink.com 1.10,2013-11-10 22:06:00,
2013-11-10 17:21:00,48.8,33.0,29.83,NNE,16,0.0,-999.0,55,-99.99,,,0.00,weatherlink.com 1.10,2013-11-10 22:21:00,
2013-11-10 17:36:00,48.6,33.0,29.84,North,0,0.0,-999.0,56,-99.99,,,0.00,weatherlink.com 1.10,2013-11-10 22:36:00,
2013-11-10 17:51:00,48.5,33.0,29.85,NNW,336,0.0,-999.0,56,-99.99,,,0.00,weatherlink.com 1.10,2013-11-10 22:51:00,
2013-11-10 18:06:00,48.8,33.0,29.85,West,272,0.0,-999.0,54,-99.99,,,0.00,weatherlink.com 1.10,2013-11-10 23:06:00,
2013-11-10 18:21:00,49.5,31.0,29.86,West,274,8.0,-999.0,50,-99.99,,,0.00,weatherlink.com 1.10,2013-11-10 23:21:00,
2013-11-10 18:36:00,50.1,29.0,29.86,West,270,10.0,-999.0,45,-99.99,,,0.00,weatherlink.com 1.10,2013-11-10 23:36:00,
2013-11-10 18:51:00,51.0,28.0,29.86,WSW,253,7.0,-999.0,42,-99.99,,,0.00,weatherlink.com 1.10,2013-11-10 23:51:00,
2013-11-10 19:06:00,50.8,27.0,29.86,West,278,3.0,-999.0,40,-99.99,,,0.00,weatherlink.com 1.10,2013-11-11 00:06:00,
2013-11-10 19:21:00,50.7,26.0,29.86,NW,326,2.0,-999.0,39,-99.99,,,0.00,weatherlink.com 1.10,2013-11-11 00:21:00,
2013-11-10 19:36:00,50.4,27.0,29.87,NW,308,1.0,-999.0,40,-99.99,,,0.00,weatherlink.com 1.10,2013-11-11 00:36:00,
2013-11-10 19:51:00,50.2,27.0,29.87,WSW,256,0.0,-999.0,40,-99.99,,,0.00,weatherlink.com 1.10,2013-11-11 00:51:00,
2013-11-10 20:06:00,50.2,26.0,29.88,West,270,1.0,-999.0,39,-99.99,,,0.00,weatherlink.com 1.10,2013-11-11 01:06:00,
2013-11-10 20:21:00,50.2,25.0,29.87,West,268,2.0,-999.0,38,-99.99,,,0.00,weatherlink.com 1.10,2013-11-11 01:21:00,
2013-11-10 20:36:00,49.9,26.0,29.88,WNW,282,2.0,-999.0,39,-99.99,,,0.00,weatherlink.com 1.10,2013-11-11 01:36:00,
2013-11-10 20:51:00,49.8,26.0,29.89,West,265,0.0,-999.0,39,-99.99,,,0.00,weatherlink.com 1.10,2013-11-11 01:51:00,
2013-11-10 21:06:00,50.1,25.0,29.90,North,4,1.0,-999.0,38,-99.99,,,0.00,weatherlink.com 1.10,2013-11-11 02:06:00,
2013-11-10 21:21:00,50.1,25.0,29.90,West,270,0.0,-999.0,38,-99.99,,,0.00,weatherlink.com 1.10,2013-11-11 02:21:00,
2013-11-10 21:36:00,50.1,26.0,29.90,North,8,1.0,-999.0,39,-99.99,,,0.00,weatherlink.com 1.10,2013-11-11 02:36:00,
2013-11-10 21:51:00,50.1,26.0,29.90,WNW,292,1.0,-999.0,40,-99.99,,,0.00,weatherlink.com 1.10,2013-11-11 02:51:00,
2013-11-10 22:07:00,49.8,26.0,29.90,NNE,28,2.0,-999.0,40,-99.99,,,0.00,weatherlink.com 1.10,2013-11-11 03:07:00,
2013-11-10 22:22:00,49.4,26.0,29.90,WSW,247,7.0,-999.0,40,-99.99,,,0.00,weatherlink.com 1.10,2013-11-11 03:22:00,
2013-11-10 22:37:00,49.4,26.0,29.90,WNW,295,0.0,-999.0,41,-99.99,,,0.00,weatherlink.com 1.10,2013-11-11 03:37:00,
2013-11-10 22:52:00,49.4,26.0,29.91,WSW,237,0.0,-999.0,40,-99.99,,,0.00,weatherlink.com 1.10,2013-11-11 03:52:00,
2013-11-10 23:07:00,49.4,26.0,29.91,North,0,3.0,-999.0,40,-99.99,,,0.00,weatherlink.com 1.10,2013-11-11 04:07:00,
2013-11-10 23:22:00,49.1,26.0,29.91,NW,309,0.0,-999.0,41,-99.99,,,0.00,weatherlink.com 1.10,2013-11-11 04:22:00,
2013-11-10 23:37:00,48.9,26.0,29.92,NNE,31,1.0,-999.0,41,-99.99,,,0.00,weatherlink.com 1.10,2013-11-11 04:37:00,
2013-11-10 23:52:00,48.8,26.0,29.93,North,350,2.0,-999.0,41,-99.99,,,0.00,weatherlink.com 1.10,2013-11-11 04:52:00,